Back to catalog

DELTA 1 DEB

AliveSSO
NORAD 7169·DEBRIS·🇺🇸 United States

Launched Nov 6, 1973 from Vandenberg Space Force Base

Loading…

Next Passes (next 24 hours)

TLE

FreshSource: Space-Track

Epoch: Sep 14, 2026, 10:35 UTC

1 07169U 73086EH  26257.44126662  .00000171  00000-0  10722-2 0  9993
2 07169 101.4226 322.3394 0133075 251.5405 121.5039 12.68839369440798

Track DELTA 1 DEB in real time with AllMySat

Download on the App Store